Regional Weather Roundup
Issued by NWS

Home | Current Version | Previous Version | Text Only | Print | Product List | Glossary Off
Versions: 1 2 3 4 5 6 7 8 9 10 11 12 13 14 15 16 17 18 19 20 21 22 23 24 25 26 27 28 29 30 31 32 33 34 35 36 37 38 39 40 41 42 43 44 45 46 47 48 49 50

000
ASUS45 KCYS 262110
RWRWY

WYOMING REGIONAL WEATHER ROUNDUP
NATIONAL WEATHER SERVICE CHEYENNE WY
300 PM MDT WED JUL 26 2017

NOTE:  "FAIR" INDICATES FEW OR NO CLOUDS BELOW 12,000 FEET
WITH NO SIGNIFICANT WEATHER AND/OR OBSTRUCTIONS TO VISIBILITY.

WYZ001-262200-
YELLOWSTONE NATIONAL PARK

CITY           SKY/WX    TMP DP  RH WIND       PRES   REMARKS
LK YELLOWSTONE   N/A     64  52  64 W9        30.40S
W YELLOWSTONE  NOT AVBL

$$
WYZ002>013-054>058-071-098>099-262200-
NORTHERN WYOMING

CITY           SKY/WX    TMP DP  RH WIND       PRES   REMARKS
JACKSON        MOSUNNY   66  54  63 CALM      30.32F
CODY           FAIR      84  49  29 NE9       30.18F
GREYBULL       FAIR      88  47  24 CALM      30.09F
WORLAND        FAIR      88  50  27 VRB7      30.10F
SHERIDAN       FAIR      87  53  31 E15G22    30.12F
BUFFALO        FAIR      80  50  34 S10       30.22F
GILLETTE       FAIR      83  53  35 S14G22    30.19F
HULETT         FAIR      81  55  41 S8        30.21F
NEWCASTLE      FAIR      81  50  34 S10       30.22F

$$
WYZ014>020-022>026-101>103-262200-
CENTRAL WYOMING

CITY           SKY/WX    TMP DP  RH WIND       PRES   REMARKS
BIG PINEY      CLOUDY    68  52  56 N17       30.37S
PINEDALE       MOCLDY    68  46  45 NW18G24   30.38R
DUBOIS         CLOUDY    68  46  45 S8        30.32F
LANDER         PTSUNNY   80  48  32 VRB3      30.21F
RIVERTON       FAIR      82  51  34 SE7       30.21F
CASPER         FAIR      78  57  48 VRB3      30.24F
DOUGLAS        PTSUNNY   73  54  51 SE13      30.28F

$$
WYZ021-027>030-104>119-262200-
SOUTHERN WYOMING

CITY           SKY/WX    TMP DP  RH WIND       PRES   REMARKS
EVANSTON       FAIR      74  54  49 NW8G17    30.35F
KEMMERER         N/A     64  57  77 W7        30.38F
FORT BRIDGER   TSTM      69  57  65 CALM      30.38S
ROCK SPRINGS   FAIR      73  53  49 S20       30.30F
RAWLINS        PTSUNNY   76  54  46 E5        30.32F
SARATOGA       FAIR      77  50  38 N14G20    30.33F
LARAMIE        PTSUNNY   70  55  59 E13       30.34F
CHEYENNE       CLOUDY    73  56  54 NE12G21   30.31F
TORRINGTON     LGT RAIN  79  52  38 E8        30.20F
PINE BLUFFS    CLOUDY    77  54  44 N10       30.25F

$$



USA.gov is the U.S. government's official web portal to all federal, state and local government web resources and services.